FENGYUN 1C DEB

Satellite information

Favourite Embed

Satellite Type and Status

DEBRISIN ORBIT

Key statistics

Satellite FENGYUN 1C DEB at a glance.

Uptime

9661

Days in orbit

Revolutions

≈ 14.1

Per day

Orbit

SSO

Sun Synchronous Orbit

Inclination

98.6

Latest

Satellite identification and parameters

Extended collection of information and parameters for FENGYUN 1C DEB.

Object identification

Identified? True

Debris? True

Object name: FENGYUN 1C DEB

International designator: 1999-025ABL

Object number (NORAD): 30349

Object ID (CCSDS): 30349

Country: PEOPLES REPUBLIC OF CHINA (PRC)

Current information (Y/N): Y

RCS size: SMALL

Orbital parameters

Period: 102.084 minutes

Inclination: 98.5799 deg

SMA: 7235.452 km

Apoapsis: 920.426 km

Periapsis: 794.207 km

RAAN: 258.7003 deg

Eccentricy: 0.00872226

Argument of periapsis: 161.4933 deg

Mean anomaly: 266.3536 deg

Mean motion: 14.10601295 rev/day

Mean motion (dot): 0.00004477 rev/day2

B* drag term: 0.0024438208 1/REarth

Two-line elements (TLE)

Creation date: Oct. 21, 2025, 3:26 a.m.

Reference frame: TEME

Reference center: EARTH

Epoch: Oct. 20, 2025, 9:47 p.m. UTC

TLE line 0: 0 FENGYUN 1C DEB

TLE line 1: 1 30349U 99025ABL 25293.90810428 .00004477 00000-0 24438-2 0 9992

TLE line 2: 2 30349 98.5799 258.7003 0087223 161.4933 266.3536 14.10601295954864

Live tracking on map

Real-time ground track for satellite FENGYUN 1C DEB.

In-orbit conjunctions

A list of the most updated potential collisions computed for object FENGYUN 1C DEB.

Target Orbit TCA Probability of collision Miss distance Type
DELTA 2 R/B LEO 2025-08-28 14:22:11 0.0002447958 613.0 (m) ROCKET BODY
COSMOS 397 DEB * LEO 2025-04-28 11:06:16 0.0001079463 122.0 (m) DEBRIS
FENGYUN 1C DEB SSO 2024-12-05 06:22:05 0.0002206529 26.0 (m) DEBRIS

Associated space launch

Chinese polar orbiting meteorological satellite

FENGYUN 1C DEB was lifted into orbit during the mission ‘Long March 4B | Feng Yun 1C’, on board a Long March 4B space rocket.

The launch took place on May 10, 1999, 1:33 a.m. from Launch Complex 7.

For more information about the launch, click the button.

Launch to space Long March 4B | Feng Yun 1C
Long March 4B | Feng Yun 1C

Agency: N/A

Status: Launch Successful

Launch date: May 10, 1999, 1:33 a.m. UTC

Rocket: Long March 4B

Launch pad: Launch Complex 7

Location: Taiyuan Satellite Launch Center, People's Republic of China

...

Latest news about this satellite

There are no fresh news available about this satellite. Check back as we update our databases every day.


Newsletter sign-up

Weekly statistics, charts and insights to help you stay on top of the space industry.